TimeMST,TemperatureF,Dew PointF,Humidity,Sea Level PressureIn,VisibilityMPH,Wind Direction,Wind SpeedMPH,Gust SpeedMPH,PrecipitationIn,Events,Conditions,WindDirDegrees,DateUTC
1:53 AM,35.6,32.0,87,30.04,10.0,SSW,4.6,-,N/A,,Clear,210,2011-11-25 08:53:00
2:53 AM,35.6,32.0,87,30.05,9.0,SSW,4.6,-,N/A,,Clear,210,2011-11-25 09:53:00
3:53 AM,34.0,30.9,89,29.96,10.0,SSW,5.8,-,N/A,,Clear,200,2011-11-25 10:53:00
5:53 AM,33.1,30.9,92,30.00,9.0,South,3.5,-,N/A,,Clear,170,2011-11-25 12:53:00
6:53 AM,32.0,30.0,92,30.02,10.0,SSW,3.5,-,N/A,,Clear,200,2011-11-25 13:53:00
7:53 AM,32.0,30.0,92,30.04,10.0,SSW,4.6,-,N/A,,Clear,210,2011-11-25 14:53:00
8:53 AM,43.0,36.0,76,30.04,10.0,NNW,4.6,-,N/A,,Clear,330,2011-11-25 15:53:00
9:53 AM,46.9,35.1,63,30.07,10.0,NW,13.8,-,N/A,,Clear,310,2011-11-25 16:53:00
10:53 AM,51.1,32.0,48,30.05,10.0,WNW,12.7,-,N/A,,Clear,300,2011-11-25 17:53:00
12:53 PM,55.0,28.9,37,30.04,10.0,NW,9.2,-,N/A,,Clear,320,2011-11-25 19:53:00
1:53 PM,57.2,26.6,31,30.12,10.0,NNW,12.7,20.7,N/A,,Clear,340,2011-11-25 20:53:00
2:53 PM,59.0,25.0,27,30.01,10.0,North,9.2,-,N/A,,Clear,350,2011-11-25 21:53:00
3:53 PM,59.0,23.0,25,30.03,10.0,NNW,11.5,-,N/A,,Clear,340,2011-11-25 22:53:00
4:53 PM,55.9,23.0,28,30.05,10.0,NW,8.1,-,N/A,,Clear,320,2011-11-25 23:53:00
5:53 PM,48.9,24.1,38,30.10,10.0,West,5.8,-,N/A,,Clear,280,2011-11-26 00:53:00
6:53 PM,48.0,24.1,39,30.14,10.0,NNW,8.1,-,N/A,,Clear,340,2011-11-26 01:53:00
7:53 PM,42.8,24.8,49,30.23,10.0,NW,6.9,-,N/A,,Clear,310,2011-11-26 02:53:00
8:53 PM,42.1,25.0,51,30.18,9.0,WNW,3.5,-,N/A,,Clear,290,2011-11-26 03:53:00
9:53 PM,41.0,26.1,55,30.20,7.0,Calm,Calm,-,N/A,,Clear,0,2011-11-26 04:53:00
10:53 PM,41.0,26.1,55,30.18,4.0,West,10.4,-,N/A,,Haze,280,2011-11-26 05:53:00
11:53 PM,39.9,26.1,58,30.19,4.0,West,4.6,-,N/A,,Haze,260,2011-11-26 06:53:00